TimePDT,TemperatureF,Dew PointF,Humidity,Sea Level PressureIn,VisibilityMPH,Wind Direction,Wind SpeedMPH,Gust SpeedMPH,PrecipitationIn,Events,Conditions,WindDirDegrees,DateUTC
12:53 AM,30.9,24.1,76,30.14,-9999.0,SSW,5.8,-,N/A,,Unknown,200,2012-10-28 07:53:00
1:53 AM,30.9,24.1,76,30.14,-9999.0,South,8.1,-,N/A,,Unknown,180,2012-10-28 08:53:00
2:53 AM,33.1,23.0,66,30.12,-9999.0,SSW,10.4,-,N/A,,Unknown,200,2012-10-28 09:53:00
3:53 AM,30.0,23.0,75,30.13,-9999.0,Calm,Calm,-,N/A,,Unknown,0,2012-10-28 10:53:00
4:53 AM,30.0,21.9,72,30.15,-9999.0,SSW,10.4,-,N/A,,Unknown,200,2012-10-28 11:53:00
5:53 AM,32.0,23.0,69,30.16,-9999.0,South,6.9,-,N/A,,Unknown,190,2012-10-28 12:53:00
6:53 AM,30.0,21.0,69,30.19,-9999.0,SSW,9.2,-,N/A,,Unknown,210,2012-10-28 13:53:00
7:53 AM,30.0,21.0,69,30.22,-9999.0,SSW,8.1,-,N/A,,Unknown,210,2012-10-28 14:53:00
8:53 AM,39.9,24.1,53,30.19,-9999.0,WSW,3.5,-,N/A,,Unknown,250,2012-10-28 15:53:00
9:53 AM,48.9,27.0,43,30.17,-9999.0,NNE,4.6,-,N/A,,Unknown,20,2012-10-28 16:53:00
10:53 AM,51.1,27.0,39,30.16,-9999.0,Calm,Calm,-,N/A,,Unknown,0,2012-10-28 17:53:00
11:53 AM,57.0,27.0,32,30.13,-9999.0,Variable,3.5,-,N/A,,Unknown,0,2012-10-28 18:53:00
12:53 PM,61.0,28.9,30,30.10,-9999.0,East,3.5,-,N/A,,Unknown,80,2012-10-28 19:53:00
1:53 PM,63.0,28.9,28,30.07,-9999.0,Variable,3.5,-,N/A,,Unknown,0,2012-10-28 20:53:00
2:53 PM,64.0,30.0,28,30.03,-9999.0,NE,6.9,-,N/A,,Unknown,40,2012-10-28 21:53:00
3:53 PM,64.9,28.0,25,30.04,-9999.0,Calm,Calm,-,N/A,,Unknown,0,2012-10-28 22:53:00
4:53 PM,64.0,28.9,27,30.04,-9999.0,North,4.6,-,N/A,,Unknown,10,2012-10-28 23:53:00
5:53 PM,55.0,32.0,42,30.06,-9999.0,North,3.5,-,N/A,,Unknown,10,2012-10-29 00:53:00
6:53 PM,48.9,30.0,48,30.10,-9999.0,South,6.9,-,N/A,,Unknown,180,2012-10-29 01:53:00
7:53 PM,42.1,27.0,55,30.14,-9999.0,South,8.1,-,N/A,,Unknown,180,2012-10-29 02:53:00
8:53 PM,42.1,27.0,55,30.12,-9999.0,SW,4.6,-,N/A,,Unknown,220,2012-10-29 03:53:00
9:53 PM,39.9,25.0,55,30.09,-9999.0,SSW,5.8,-,N/A,,Unknown,200,2012-10-29 04:53:00
10:53 PM,41.0,25.0,53,30.10,-9999.0,South,8.1,-,N/A,,Unknown,180,2012-10-29 05:53:00
11:53 PM,39.0,24.1,55,30.09,-9999.0,South,9.2,-,N/A,,Unknown,190,2012-10-29 06:53:00